Location: Oulou
(10.7667°N, 12.5167°W)
Time: 17:04:41
(UTC+00:00)

Cosmos 2333 - Pass Details

Date: 20 September 2019
Orbit: 831 x 865 km, 70.9° (Epoch: 20 October)

Event Time Altitude Azimuth Distance (km) Brightness Sun altitude
Rises 19:54:06 0° 351° (N) 3,403 7.5 -17.1°
Reaches altitude 10° 19:56:36 10° 355° (N) 2,473 6.7 -17.8°
Maximum altitude 20:02:10 56° 73° (ENE) 1,006 4.2 -19.1°
Enters shadow 20:05:49 22° 145° (SE) 1,799 5.5 -20.0°
